Regional Weather Roundup
Issued by NWS Midland/Odessa, TX

Skip options and go directly to product.
Home | Oldest Version | Previous Version | Current Version | All | Text Only | Save Text | Print | Product List | Glossary Off

Skip product version selection by date and time.   

883
ASUS44 KMAF 250510
RWRMAF
MIDLAND AREA WEATHER ROUNDUP
NATIONAL WEATHER SERVICE MIDLAND TX
1200 AM CDT SUN SEP 25 2016

...IN SOUTHWEST TEXAS AND SOUTHEAST NEW MEXICO...

CITY           SKY/WX    TMP DP  RH WIND       PRES   REMARKS
ALPINE         CLOUDY    65  60  82 CALM      30.13S
ANDREWS        FAIR      71  62  73 S6        30.02R
ARTESIA        CLEAR     66  46  48 NW13      30.01R
BIG SPRING     CLOUDY    68  65  90 S15       30.03R
CARLSBAD       CLEAR     66  46  48 NW5       29.97S
DRYDEN           N/A     69  65  86 NE7       29.97F
FORT STOCKTON  CLOUDY    66  61  84 S13       30.00F
GUAD PASS      CLEAR     69  37  30 W9        30.13F
HOBBS          PTCLDY    64  59  82 CALM      30.03F
MARFA          CLOUDY   N/A N/A N/A NW3       30.11S
MIDLAND AIRPK  CLOUDY    74  61  65 SE17      30.03R THUNDER
MIDLAND INTL   CLOUDY    72  63  73 SE18      30.02R
ODESSA         LGT RAIN  70  65  84 S16       30.01R
PECOS          PTCLDY    69  59  71 SE8       29.97F
PRESIDIO       NOT AVBL
SEMINOLE       CLOUDY    69  64  82 CALM      30.02S
SNYDER           N/A     67  65  94 CALM      29.98R
WINK           CLOUDY    69  59  70 CALM      29.97S
$$
...OTHER STATIONS IN TEXAS...

CITY           SKY/WX    TMP DP  RH WIND       PRES   REMARKS
ABILENE        TSTM      67  66  97 E9        30.04R FOG
AMARILLO       CLEAR     61  55  81 SE12      30.04R
AUSTIN         PTCLDY    74  72  93 CALM      29.95R
BROWNSVILLE    CLEAR     83  75  77 S9        29.91S
CORPUS CHRISTI CLEAR     82  77  84 SE9       29.89S
DALLAS FTW     CLOUDY    78  71  79 S9        29.98R
DEL RIO        CLOUDY    72  70  93 W5G21     29.92R
EL PASO        CLEAR     68  40  35 NE5       30.02S
HOUSTON INT    MOCLDY    76  75  97 CALM      29.96S
LUBBOCK        MOCLDY    65  62  90 SE7       30.00S
SAN ANGELO     TSTM      75  67  76 NE13      29.98R
SAN ANTONIO    CLOUDY    78  74  87 SE9       29.93F
WACO           CLEAR     76  74  93 SE6       29.96R
WICHITA FALLS  NOT AVBL
$$
...OTHER LOCATIONS IN NEW MEXICO...

CITY           SKY/WX    TMP DP  RH WIND       PRES   REMARKS
ALAMAGORDO     CLEAR     64  37  36 SE6       30.06R
ALBUQUERQUE    CLEAR     59  33  37 N8        30.18S
CANNON AFB     CLOUDY    62  31  31 N9        30.07R
CLOVIS         CLOUDY    57  34  41 NW10      30.06S
HOLLOMAN AFB   CLEAR     70  39  32 SE6       30.03S
ROSWELL        CLEAR     63  33  32 N8        30.02S
RUIDOSO        CLEAR     54  28  37 S3        30.23R
SANTA FE       CLEAR     53  34  48 N15       30.21S
TRUTH OR CONSE CLEAR     66  29  24 NE18G29   30.10R
TUCUMCARI      CLEAR     55  28  35 W3        30.05R
$$

USA.gov is the U.S. government's official web portal to all federal, state and local government web resources and services.